Location: Rounton
(54.4000°N, 1.3500°W)
Time: 22:24:00
(UTC+00:00)

Vanguard 3 - Pass Details

Date: 08 December 2021
Orbit: 508 x 3260 km, 33.3° (Epoch: 17 January)

Event Time Altitude Azimuth Distance (km) Brightness Sun altitude
Rises 05:51:06 0° 256° (WSW) 7,167 - -19.2°
Exits shadow 05:56:07 - 250° (WSW) 6,283 11.2 -18.5°
Reaches altitude 10° 05:56:36 10° 249° (WSW) 6,200 11.1 -18.4°
Maximum altitude 06:12:34 33° 195° (SSW) 4,160 10.7 -16.2°
Drops below altitude 10° 06:25:11 10° 139° (SE) 4,886 12.1 -14.4°
Sets 06:28:54 0° 130° (SE) 5,531 12.8 -13.9°
